CINOVEC Weather Reports


Display with metric or nautical units.
time (UTC)temp
F
wind
direction
speed
MPH
gust
MPH
rain 1hr
in
rain 24hr
in
rain mn
in
humidity
%
barometer
mb
20240615071727 57 160 18.0 26.0 0.00 0.00 0.00 71
20240615061727 54 150 15.0 23.0 0.00 0.00 0.00 81
20240615051727 50 150 12.0 0.0 0.00 0.00 0.00 93
20240615041727 50 150 14.0 0.0 0.00 0.00 0.00 93
20240615031752 50 140 16.0 0.0 0.00 0.00 0.00 87
20240615021753 48 140 14.0 0.0 0.00 0.00 0.00 93
20240615011727 50 150 14.0 21.0 0.00 0.00 0.00 93
20240615001725 50 150 10.0 0.0 0.00 0.00 0.00 93
20240614231725 50 170 14.0 0.0 0.00 0.00 0.00 93
20240614221727 50 130 9.0 0.0 0.00 0.00 0.00 93
20240614211726 50 150 12.0 0.0 0.00 0.00 0.00 93
20240614201727 52 150 13.0 0.0 0.00 0.00 0.00 87
20240614191727 52 160 13.0 0.0 0.00 0.00 0.00 87
20240614181728 54 150 13.0 0.0 0.00 0.00 0.00 76
20240614171727 54 160 14.0 0.0 0.00 0.00 0.00 81
20240614161726 54 170 15.0 0.0 0.00 0.00 0.00 76
20240614151726 54 170 18.0 25.0 0.00 0.00 0.00 81
20240614141727 54 160 21.0 28.0 0.00 0.00 0.00 81
20240614131728 54 150 14.0 21.0 0.00 0.00 0.00 81
20240614121727 54 150 14.0 0.0 0.00 0.00 0.00 81
20240614111727 50 140 14.0 0.0 0.00 0.00 0.00 87
20240614101728 50 130 13.0 0.0 0.00 0.00 0.00 87
20240614091727 50 140 12.0 0.0 0.00 0.00 0.00 81
20240614081728 50 140 13.0 0.0 0.00 0.00 0.00 81